Tracking 18647 objects as of 29-May-2017
HD Live streaming from Space Station
objects crossing your sky now

OPS 9433 (DSCS 2-3)

Track OPS 9433 (DSCS 2-3) now!
OPS 9433 (DSCS 2-3) is classified as:


NORAD ID: 6973
Int'l Code: 1973-100A
Perigee: 36,413.3 km
Apogee: 36,673.4 km
Inclination: 12.8 °
Period: 1,474.6 minutes
Semi major axis: 42914 km
RCS: 5.3322 m2 (large)
Launch date: December 13, 1973
Source: United States (US)
Launch site: AIR FORCE EASTERN TEST RANGE (AFETR)
Your satellite tracking list
Your tracking list is empty





NASA's NSSDC Master Catalog

Two Line Element Set (TLE):
1  6973U 73100A   17148.28637500 -.00000159 +00000-0 +00000-0 0  9994
2  6973 012.8308 317.1871 0030300 144.4316 207.2703 00.97656142087530
Source of the keplerian elements: AFSPC